• Join FlightAware (Why Join?)
  • Login
  • US Flag 
05:31PM EDT


 

Airport Tracker/Info


-or-


 

Live Flight TrackerFlight Track Log ✈ SWA1718 ✈ 17-Apr-2013 ✈ KMDW - KBUF

Flight Track Log - Related Links

Times and Time Zones

All times are in EDT time to prevent confusion due to time zone crossing. See the SWA1718 flight status page for this flight to view local times or setup timezone preferences in your user account.

Time Position Orientation Groundspeed Altitude Reporting Facility
EDT Latitude Longitude Course Direction KTS MPH feet Rate Location/Type
10:30PM 41.8167 -87.5833 90° East 254 292 3,000  Level Chicago TRACON
10:31PM 41.8500 -87.5000 62° Northeast 260 299 3,000 900 Level Chicago TRACON
10:32PM 41.8833 -87.4167 62° Northeast 267 307 4,800 1,500 Climbing Chicago TRACON
10:33PM 41.9333 -87.3333 51° Northeast 306 352 6,100 2,100 Climbing Chicago TRACON
10:34PM 41.8605 -86.6196 86° East  Level FlightAware Approximate
10:34PM 41.9742 -87.2133 65° Northeast 314 361 9,600  Level Chicago Center
10:35PM 41.9639 -87.0747 96° East 318 366 12,800 2,940 Climbing Chicago Center
10:36PM 41.9500 -86.9483 98° East 340 391 15,600 2,400 Climbing Chicago Center
10:37PM 41.9578 -86.8117 86° East 374 430 17,700 1,980 Climbing Chicago Center
10:38PM 41.9719 -86.6733 82° East 388 447 19,700 1,860 Climbing Chicago Center
10:39PM 41.9883 -86.5197 82° East 412 474 21,600 1,980 Climbing Chicago Center
10:40PM 42.0039 -86.3647 82° East 418 481 23,700 1,860 Climbing Chicago Center
10:41PM 42.0186 -86.2069 83° East 424 488 25,400 1,620 Climbing Chicago Center
10:42PM 42.0356 -86.0447 82° East 435 501 27,100 1,380 Climbing Chicago Center
10:43PM 42.0525 -85.8644 83° East 435 501 28,300 1,260 Climbing Chicago Center
10:44PM 42.0689 -85.6958 82° East 449 517 29,700 1,260 Climbing Chicago Center
10:45PM 42.0844 -85.5233 83° East 461 531 30,900 1,260 Climbing Chicago Center
10:46PM 42.1017 -85.3511 82° East 467 537 32,300 1,320 Climbing Chicago Center
10:47PM 42.1125 -85.2639 80° East 464 534 33,000 1,080 Climbing Cleveland Center
10:48PM 42.1286 -85.0744 83° East 464 534 34,000 840 Climbing Cleveland Center
10:49PM 42.1417 -84.8961 84° East 464 534 34,700 480 Climbing Cleveland Center
10:50PM 42.1586 -84.7181 83° East 470 541 35,000 120 Climbing Cleveland Center
10:51PM 42.1681 -84.5644 85° East 470 541 35,000  Level Cleveland Center
10:52PM 42.1825 -84.3831 84° East 470 541 35,000  Level Cleveland Center
10:53PM 42.1967 -84.2047 84° East 475 547 35,000  Level Cleveland Center
10:54PM 42.2125 -84.0344 83° East 475 547 35,000  Level Cleveland Center
10:55PM 42.2258 -83.8583 84° East 475 547 35,000  Level Cleveland Center
10:56PM 42.2392 -83.6825 84° East 475 547 35,000  Level Cleveland Center
10:57PM 42.2547 -83.4811 84° East 482 555 35,000  Level Cleveland Center
10:58PM 42.2675 -83.3050 84° East 475 547 35,000  Level Cleveland Center
10:59PM 42.2800 -83.1258 85° East 480 552 35,000  Level Cleveland Center
11:00PM 42.2919 -82.9467 85° East 480 552 35,000  Level Cleveland Center
11:01PM 42.3039 -82.7703 85° East 480 552 35,000  Level Cleveland Center
11:02PM 42.3175 -82.5967 84° East 480 552 35,000  Level Cleveland Center
11:03PM 42.3289 -82.4172 85° East 480 552 35,000  Level Cleveland Center
11:04PM 42.3400 -82.2378 85° East 480 552 35,000 -360 Level Cleveland Center
11:05PM 42.3528 -82.0553 85° East 480 552 34,300 -900 Descending Cleveland Center
11:06PM 42.3633 -81.8758 85° East 480 552 33,300 -1,020 Descending Cleveland Center
11:07PM 42.3736 -81.6933 86° East 480 552 32,300 -960 Descending Cleveland Center
11:08PM 42.3836 -81.5108 86° East 480 552 31,400 -960 Descending Cleveland Center
11:09PM 42.3953 -81.3311 85° East 480 552 30,400 -1,080 Descending Cleveland Center
11:10PM 42.4047 -81.1511 86° East 480 552 29,300 -1,500 Descending Cleveland Center
11:11PM 42.4136 -80.9656 86° East 480 552 27,500 -1,200 Descending Cleveland Center
11:12PM 42.4225 -80.7914 86° East 475 547 27,000 -300 Descending Cleveland Center
11:13PM 42.4311 -80.6367 86° East 462 532 26,900 -600 Descending Cleveland Center
11:14PM 42.4372 -80.4764 87° East 445 512 25,800 -1,140 Descending Cleveland Center
11:15PM 42.4453 -80.3158 86° East 423 487 24,700 -1,560 Descending Cleveland Center
11:16PM 42.4553 -80.1611 85° East 418 481 22,700 -2,040 Descending Cleveland Center
11:17PM 42.4608 -80.0061 87° East 417 480 20,600 -2,160 Descending Cleveland Center
11:18PM 42.4744 -79.8483 83° East 417 480 18,400 -2,160 Descending Cleveland Center
11:19PM 42.5194 -79.7128 66° East 396 456 16,400 -2,220 Descending Cleveland Center
11:20PM 42.5706 -79.5825 62° Northeast 389 448 14,000 -2,880 Descending Cleveland Center
11:21PM 42.6275 -79.4489 60° Northeast 389 448 10,700 -2,100 Descending Cleveland Center
11:22PM 42.6742 -79.3236 63° Northeast 389 448 9,900 -1,560 Descending Cleveland Center
11:23PM 42.7208 -79.2097 61° Northeast 333 383 7,600 -1,980 Descending Cleveland Center
11:24PM 42.7592 -79.1100 62° Northeast 306 352 6,000 -1,800 Descending Cleveland Center
11:25PM 42.7936 -79.0300 60° Northeast 278 320 4,000 -1,320 Descending Cleveland Center
11:26PM 42.8300 -78.9356 62° Northeast 278 320 3,400 -600 Descending Cleveland Center
11:27PM 42.8600 -78.8583 62° Northeast 225 259 2,900 -720 Descending Cleveland Center
11:27PM 42.8833 -78.8000 61° Northeast 178 205 2,200 -900 Descending Buffalo TRACON
11:28PM 42.9167 -78.7667 36° Northeast 131 151 1,300 -900 Descending Buffalo TRACON
11:31PM 42.9333 -78.7167 36° Northeast  Level FlightAware Approximate